Time,TemperatureF,DewpointF,PressureIn,WindDirection,WindDirectionDegrees,WindSpeedMPH,WindSpeedGustMPH,Humidity,HourlyPrecipIn,Conditions,Clouds,dailyrainin,SolarRadiationWatts/m^2,SoftwareType,DateUTC
2014-10-23 00:01:00,47.8,45.6,29.58,North,350,7.0,9.0,92,0.00,,,0.00,0,WeatherCatV2.00B4475,2014-10-23 04:01:00,
2014-10-23 00:06:00,47.7,45.5,29.58,NNE,13,0.0,8.0,92,0.00,,,0.00,0,WeatherCatV2.00B4475,2014-10-23 04:06:00,
2014-10-23 00:11:00,47.6,45.7,29.57,NNW,337,7.0,7.0,93,0.00,,,0.00,0,WeatherCatV2.00B4475,2014-10-23 04:11:00,
2014-10-23 00:16:00,47.4,45.5,29.57,NNW,347,7.0,9.0,93,0.00,,,0.00,0,WeatherCatV2.00B4475,2014-10-23 04:16:00,
2014-10-23 00:21:00,47.3,45.7,29.57,NNW,346,5.0,10.0,94,0.00,,,0.00,0,WeatherCatV2.00B4475,2014-10-23 04:21:00,
2014-10-23 00:26:00,47.2,45.6,29.56,North,11,7.0,10.0,94,0.00,,,0.00,0,WeatherCatV2.00B4475,2014-10-23 04:26:00,
2014-10-23 00:31:00,47.0,45.4,29.57,NNE,13,11.0,11.0,94,0.00,,,0.00,0,WeatherCatV2.00B4475,2014-10-23 04:31:00,
2014-10-23 00:36:00,47.0,45.4,29.57,North,0,3.0,9.0,94,0.00,,,0.00,0,WeatherCatV2.00B4475,2014-10-23 04:36:00,
2014-10-23 00:41:00,46.9,45.5,29.57,North,355,1.0,5.0,95,0.00,,,0.00,0,WeatherCatV2.00B4475,2014-10-23 04:41:00,
2014-10-23 00:46:00,46.9,45.3,29.56,North,5,8.0,9.0,94,0.00,,,0.00,0,WeatherCatV2.00B4475,2014-10-23 04:46:00,
2014-10-23 00:51:00,46.9,45.5,29.56,North,11,5.0,8.0,95,0.00,,,0.00,0,WeatherCatV2.00B4475,2014-10-23 04:51:00,
2014-10-23 00:56:00,46.8,45.4,29.55,NNW,345,8.0,10.0,95,0.00,,,0.00,0,WeatherCatV2.00B4475,2014-10-23 04:56:00,
2014-10-23 01:01:00,46.8,45.4,29.55,North,10,7.0,11.0,95,0.00,,,0.00,0,WeatherCatV2.00B4475,2014-10-23 05:01:00,
2014-10-23 01:06:00,46.8,45.4,29.55,North,355,5.0,9.0,95,0.00,,,0.00,0,WeatherCatV2.00B4475,2014-10-23 05:06:00,
2014-10-23 01:11:00,46.7,45.3,29.54,North,11,7.0,7.0,95,0.00,,,0.00,0,WeatherCatV2.00B4475,2014-10-23 05:11:00,
2014-10-23 01:16:00,46.7,45.3,29.54,NNE,14,6.0,8.0,95,0.00,,,0.00,0,WeatherCatV2.00B4475,2014-10-23 05:16:00,
2014-10-23 01:21:00,46.7,45.3,29.54,North,355,3.0,8.0,95,0.00,,,0.00,0,WeatherCatV2.00B4475,2014-10-23 05:21:00,
2014-10-23 01:26:00,46.7,45.3,29.54,NNW,341,6.0,9.0,95,0.00,,,0.00,0,WeatherCatV2.00B4475,2014-10-23 05:26:00,
2014-10-23 01:31:00,46.7,45.3,29.54,North,355,10.0,10.0,95,0.00,,,0.00,0,WeatherCatV2.00B4475,2014-10-23 05:31:00,
2014-10-23 01:36:00,46.7,45.3,29.54,NNW,344,3.0,8.0,95,0.00,,,0.00,0,WeatherCatV2.00B4475,2014-10-23 05:36:00,
2014-10-23 01:41:00,46.7,45.3,29.54,North,350,4.0,13.0,95,0.00,,,0.00,0,WeatherCatV2.00B4475,2014-10-23 05:41:00,
2014-10-23 01:46:00,46.7,45.3,29.54,North,0,5.0,10.0,95,0.00,,,0.00,0,WeatherCatV2.00B4475,2014-10-23 05:46:00,
2014-10-23 01:51:00,46.7,45.3,29.53,NNE,17,2.0,9.0,95,0.00,,,0.00,0,WeatherCatV2.00B4475,2014-10-23 05:51:00,
2014-10-23 01:56:00,46.7,45.3,29.53,North,355,9.0,12.0,95,0.00,,,0.01,0,WeatherCatV2.00B4475,2014-10-23 05:56:00,
2014-10-23 02:01:00,46.7,45.1,29.52,North,355,6.0,11.0,94,0.00,,,0.01,0,WeatherCatV2.00B4475,2014-10-23 06:01:00,
2014-10-23 02:06:00,46.7,45.3,29.52,NNE,13,6.0,7.0,95,0.00,,,0.01,0,WeatherCatV2.00B4475,2014-10-23 06:06:00,
2014-10-23 02:11:00,46.7,45.3,29.52,NNE,13,5.0,11.0,95,0.00,,,0.01,0,WeatherCatV2.00B4475,2014-10-23 06:11:00,
2014-10-23 02:16:00,46.7,45.3,29.52,NNW,346,6.0,9.0,95,0.00,,,0.01,0,WeatherCatV2.00B4475,2014-10-23 06:16:00,
2014-10-23 02:21:00,46.7,45.3,29.52,North,11,3.0,7.0,95,0.00,,,0.01,0,WeatherCatV2.00B4475,2014-10-23 06:21:00,
2014-10-23 02:26:00,46.6,45.2,29.51,North,351,4.0,7.0,95,0.00,,,0.01,0,WeatherCatV2.00B4475,2014-10-23 06:26:00,
2014-10-23 02:31:00,46.6,45.2,29.51,North,0,3.0,9.0,95,0.00,,,0.01,0,WeatherCatV2.00B4475,2014-10-23 06:31:00,
2014-10-23 02:36:00,46.6,45.2,29.51,NNW,340,5.0,7.0,95,0.00,,,0.01,0,WeatherCatV2.00B4475,2014-10-23 06:36:00,
2014-10-23 02:41:00,46.6,45.2,29.50,North,0,5.0,6.0,95,0.00,,,0.01,0,WeatherCatV2.00B4475,2014-10-23 06:41:00,
2014-10-23 02:46:00,46.5,45.2,29.50,NNE,22,8.0,11.0,95,0.00,,,0.01,0,WeatherCatV2.00B4475,2014-10-23 06:46:00,
2014-10-23 02:51:00,46.5,45.2,29.50,North,0,3.0,10.0,95,0.00,,,0.01,0,WeatherCatV2.00B4475,2014-10-23 06:51:00,
2014-10-23 02:56:00,46.5,45.2,29.50,NNW,343,5.0,9.0,95,0.00,,,0.01,0,WeatherCatV2.00B4475,2014-10-23 06:56:00,
2014-10-23 03:01:00,46.5,45.2,29.50,North,9,9.0,9.0,95,0.00,,,0.01,0,WeatherCatV2.00B4475,2014-10-23 07:01:00,
2014-10-23 03:06:00,46.5,45.4,29.49,NNW,335,10.0,11.0,96,0.00,,,0.01,0,WeatherCatV2.00B4475,2014-10-23 07:06:00,
2014-10-23 03:11:00,46.5,45.2,29.49,NNW,344,6.0,10.0,95,0.00,,,0.01,0,WeatherCatV2.00B4475,2014-10-23 07:11:00,
2014-10-23 03:16:00,46.5,45.2,29.48,North,5,6.0,10.0,95,0.00,,,0.01,0,WeatherCatV2.00B4475,2014-10-23 07:16:00,
2014-10-23 03:21:00,46.5,45.2,29.48,North,355,6.0,10.0,95,0.00,,,0.01,0,WeatherCatV2.00B4475,2014-10-23 07:21:00,
2014-10-23 03:26:00,46.5,45.2,29.48,NNW,341,4.0,14.0,95,0.00,,,0.01,0,WeatherCatV2.00B4475,2014-10-23 07:26:00,
2014-10-23 03:31:00,46.6,45.2,29.49,North,5,4.0,9.0,95,0.00,,,0.01,0,WeatherCatV2.00B4475,2014-10-23 07:31:00,
2014-10-23 03:36:00,46.7,45.3,29.48,North,355,6.0,9.0,95,0.00,,,0.01,0,WeatherCatV2.00B4475,2014-10-23 07:36:00,
2014-10-23 03:41:00,46.7,45.3,29.49,NNW,348,6.0,12.0,95,0.00,,,0.01,0,WeatherCatV2.00B4475,2014-10-23 07:41:00,
2014-10-23 03:46:00,46.8,45.4,29.49,NNW,346,5.0,11.0,95,0.00,,,0.01,0,WeatherCatV2.00B4475,2014-10-23 07:46:00,
2014-10-23 03:51:00,46.8,45.2,29.49,North,5,5.0,10.0,94,0.00,,,0.01,0,WeatherCatV2.00B4475,2014-10-23 07:51:00,
2014-10-23 03:56:00,46.9,45.3,29.48,North,355,6.0,11.0,94,0.00,,,0.01,0,WeatherCatV2.00B4475,2014-10-23 07:56:00,
2014-10-23 04:01:00,46.9,45.3,29.49,NNW,338,5.0,12.0,94,0.00,,,0.01,0,WeatherCatV2.00B4475,2014-10-23 08:01:00,
2014-10-23 04:06:00,46.9,45.3,29.48,North,0,5.0,12.0,94,0.00,,,0.01,0,WeatherCatV2.00B4475,2014-10-23 08:06:00,
2014-10-23 04:11:00,46.9,45.5,29.48,North,0,6.0,13.0,95,0.00,,,0.01,0,WeatherCatV2.00B4475,2014-10-23 08:11:00,
2014-10-23 04:16:00,46.9,45.5,29.48,NNE,17,3.0,9.0,95,0.00,,,0.01,0,WeatherCatV2.00B4475,2014-10-23 08:16:00,
2014-10-23 04:21:00,46.9,45.5,29.48,North,0,5.0,7.0,95,0.00,,,0.01,0,WeatherCatV2.00B4475,2014-10-23 08:21:00,
2014-10-23 04:26:00,46.9,45.5,29.47,North,0,10.0,11.0,95,0.00,,,0.01,0,WeatherCatV2.00B4475,2014-10-23 08:26:00,
2014-10-23 04:31:00,46.9,45.5,29.47,North,350,6.0,11.0,95,0.00,,,0.01,0,WeatherCatV2.00B4475,2014-10-23 08:31:00,
2014-10-23 04:36:00,46.9,45.8,29.46,North,0,5.0,10.0,96,0.00,,,0.01,0,WeatherCatV2.00B4475,2014-10-23 08:36:00,
2014-10-23 04:41:00,46.8,45.7,29.47,North,5,10.0,10.0,96,0.00,,,0.01,0,WeatherCatV2.00B4475,2014-10-23 08:41:00,
2014-10-23 04:46:00,46.8,45.7,29.46,North,10,6.0,12.0,96,0.00,,,0.01,0,WeatherCatV2.00B4475,2014-10-23 08:46:00,
2014-10-23 04:51:00,46.8,45.7,29.46,North,5,6.0,8.0,96,0.00,,,0.01,0,WeatherCatV2.00B4475,2014-10-23 08:51:00,
2014-10-23 04:56:00,46.8,45.7,29.46,North,355,4.0,6.0,96,0.00,,,0.01,0,WeatherCatV2.00B4475,2014-10-23 08:56:00,
2014-10-23 05:01:00,46.8,45.7,29.46,North,10,3.0,11.0,96,0.00,,,0.02,0,WeatherCatV2.00B4475,2014-10-23 09:01:00,
2014-10-23 05:06:00,46.9,45.8,29.46,North,0,4.0,12.0,96,0.00,,,0.02,0,WeatherCatV2.00B4475,2014-10-23 09:06:00,
2014-10-23 05:11:00,46.9,45.8,29.46,NNW,348,9.0,10.0,96,0.00,,,0.02,0,WeatherCatV2.00B4475,2014-10-23 09:11:00,
2014-10-23 05:16:00,46.9,45.8,29.46,North,5,9.0,11.0,96,0.00,,,0.02,0,WeatherCatV2.00B4475,2014-10-23 09:16:00,
2014-10-23 05:21:00,47.0,45.9,29.46,North,355,6.0,11.0,96,0.00,,,0.02,0,WeatherCatV2.00B4475,2014-10-23 09:21:00,
2014-10-23 05:26:00,47.1,46.0,29.46,NNE,15,6.0,6.0,96,0.00,,,0.02,0,WeatherCatV2.00B4475,2014-10-23 09:26:00,
2014-10-23 05:31:00,47.1,45.7,29.46,NNW,342,4.0,10.0,95,0.00,,,0.02,0,WeatherCatV2.00B4475,2014-10-23 09:31:00,
2014-10-23 05:37:00,47.2,45.8,29.46,North,10,5.0,12.0,95,0.00,,,0.02,0,WeatherCatV2.00B4475,2014-10-23 09:37:00,
2014-10-23 05:42:00,47.2,46.1,29.46,North,5,5.0,8.0,96,0.00,,,0.02,0,WeatherCatV2.00B4475,2014-10-23 09:42:00,
2014-10-23 05:47:00,47.2,46.1,29.46,NNW,347,6.0,7.0,96,0.00,,,0.02,0,WeatherCatV2.00B4475,2014-10-23 09:47:00,
2014-10-23 05:52:00,47.3,45.9,29.45,North,350,4.0,8.0,95,0.00,,,0.02,0,WeatherCatV2.00B4475,2014-10-23 09:52:00,
2014-10-23 05:57:00,47.3,45.9,29.45,North,5,3.0,5.0,95,0.00,,,0.02,0,WeatherCatV2.00B4475,2014-10-23 09:57:00,
2014-10-23 06:02:00,47.3,45.9,29.45,North,0,6.0,12.0,95,0.00,,,0.02,0,WeatherCatV2.00B4475,2014-10-23 10:02:00,
2014-10-23 06:07:00,47.4,46.0,29.45,North,355,5.0,7.0,95,0.00,,,0.02,0,WeatherCatV2.00B4475,2014-10-23 10:07:00,
2014-10-23 06:12:00,47.4,46.3,29.45,NNW,347,6.0,7.0,96,0.00,,,0.02,0,WeatherCatV2.00B4475,2014-10-23 10:12:00,
2014-10-23 06:17:00,47.4,46.3,29.44,NNE,16,7.0,10.0,96,0.00,,,0.02,0,WeatherCatV2.00B4475,2014-10-23 10:17:00,
2014-10-23 06:22:00,47.3,46.2,29.44,NNW,348,3.0,11.0,96,0.00,,,0.02,0,WeatherCatV2.00B4475,2014-10-23 10:22:00,
2014-10-23 06:27:00,47.3,45.9,29.43,North,351,0.0,9.0,95,0.00,,,0.02,0,WeatherCatV2.00B4475,2014-10-23 10:27:00,
2014-10-23 06:32:00,47.2,45.8,29.43,North,355,2.0,8.0,95,0.00,,,0.02,0,WeatherCatV2.00B4475,2014-10-23 10:32:00,
2014-10-23 06:37:00,47.2,45.8,29.43,North,9,0.0,6.0,95,0.00,,,0.02,0,WeatherCatV2.00B4475,2014-10-23 10:37:00,
2014-10-23 06:42:00,47.2,45.8,29.43,NNW,348,4.0,7.0,95,0.00,,,0.02,0,WeatherCatV2.00B4475,2014-10-23 10:42:00,
2014-10-23 06:47:00,47.2,45.8,29.43,NNW,348,4.0,6.0,95,0.00,,,0.02,0,WeatherCatV2.00B4475,2014-10-23 10:47:00,
2014-10-23 06:52:00,47.2,45.8,29.42,NNW,340,9.0,11.0,95,0.00,,,0.02,0,WeatherCatV2.00B4475,2014-10-23 10:52:00,
2014-10-23 06:57:00,47.3,45.9,29.43,NNW,347,6.0,9.0,95,0.00,,,0.02,0,WeatherCatV2.00B4475,2014-10-23 10:57:00,
2014-10-23 07:02:00,47.4,46.0,29.43,NNW,344,7.0,12.0,95,0.00,,,0.02,0,WeatherCatV2.00B4475,2014-10-23 11:02:00,
2014-10-23 07:07:00,47.4,45.8,29.43,North,0,6.0,12.0,94,0.00,,,0.02,0,WeatherCatV2.00B4475,2014-10-23 11:07:00,
2014-10-23 07:12:00,47.4,45.8,29.43,North,350,6.0,11.0,94,0.00,,,0.02,0,WeatherCatV2.00B4475,2014-10-23 11:12:00,
2014-10-23 07:17:00,47.4,45.8,29.43,North,355,4.0,6.0,94,0.00,,,0.02,0,WeatherCatV2.00B4475,2014-10-23 11:17:00,
2014-10-23 07:22:00,47.5,45.9,29.43,NNW,341,4.0,8.0,94,0.00,,,0.02,0,WeatherCatV2.00B4475,2014-10-23 11:22:00,
2014-10-23 07:27:00,47.5,45.9,29.43,NNW,341,10.0,11.0,94,0.00,,,0.02,0,WeatherCatV2.00B4475,2014-10-23 11:27:00,
2014-10-23 07:32:00,47.4,45.8,29.42,NNE,25,11.0,13.0,94,0.00,,,0.02,0,WeatherCatV2.00B4475,2014-10-23 11:32:00,
2014-10-23 07:37:00,47.5,45.9,29.42,NNW,337,8.0,8.0,94,0.00,,,0.02,0,WeatherCatV2.00B4475,2014-10-23 11:37:00,
2014-10-23 07:42:00,47.5,45.9,29.42,North,355,7.0,11.0,94,0.00,,,0.02,0,WeatherCatV2.00B4475,2014-10-23 11:42:00,
2014-10-23 07:47:00,47.6,46.0,29.42,NNW,346,6.0,13.0,94,0.00,,,0.02,0,WeatherCatV2.00B4475,2014-10-23 11:47:00,
2014-10-23 07:52:00,47.7,45.8,29.42,North,0,5.0,11.0,93,0.00,,,0.02,0,WeatherCatV2.00B4475,2014-10-23 11:52:00,
2014-10-23 07:57:00,47.7,45.8,29.42,NNE,17,7.0,10.0,93,0.00,,,0.02,5,WeatherCatV2.00B4475,2014-10-23 11:57:00,
2014-10-23 08:02:00,47.8,45.9,29.42,NNE,19,5.0,13.0,93,0.00,,,0.02,5,WeatherCatV2.00B4475,2014-10-23 12:02:00,
2014-10-23 08:07:00,47.9,46.0,29.42,North,355,4.0,12.0,93,0.00,,,0.02,5,WeatherCatV2.00B4475,2014-10-23 12:07:00,
2014-10-23 08:12:00,47.9,46.0,29.41,North,5,6.0,9.0,93,0.00,,,0.02,5,WeatherCatV2.00B4475,2014-10-23 12:12:00,
2014-10-23 08:17:00,47.9,46.0,29.41,North,9,5.0,13.0,93,0.00,,,0.02,5,WeatherCatV2.00B4475,2014-10-23 12:17:00,
2014-10-23 08:22:00,47.9,46.0,29.41,NNW,342,7.0,8.0,93,0.00,,,0.02,0,WeatherCatV2.00B4475,2014-10-23 12:22:00,
2014-10-23 08:27:00,47.9,46.3,29.41,North,355,4.0,9.0,94,0.00,,,0.03,7,WeatherCatV2.00B4475,2014-10-23 12:27:00,
2014-10-23 08:32:00,47.8,46.2,29.41,North,9,8.0,9.0,94,0.00,,,0.03,11,WeatherCatV2.00B4475,2014-10-23 12:32:00,
2014-10-23 08:37:00,47.8,46.2,29.41,North,350,5.0,11.0,94,0.00,,,0.03,5,WeatherCatV2.00B4475,2014-10-23 12:37:00,
2014-10-23 08:42:00,47.7,46.1,29.41,North,11,9.0,9.0,94,0.00,,,0.03,5,WeatherCatV2.00B4475,2014-10-23 12:42:00,
2014-10-23 08:47:00,47.6,46.2,29.40,NNW,337,5.0,9.0,95,0.00,,,0.03,7,WeatherCatV2.00B4475,2014-10-23 12:47:00,
2014-10-23 08:52:00,47.6,46.2,29.40,North,0,7.0,13.0,95,0.00,,,0.04,11,WeatherCatV2.00B4475,2014-10-23 12:52:00,
2014-10-23 08:57:00,47.5,46.1,29.41,North,350,3.0,11.0,95,0.00,,,0.04,7,WeatherCatV2.00B4475,2014-10-23 12:57:00,
2014-10-23 09:02:00,47.4,46.0,29.40,NNE,13,5.0,8.0,95,0.00,,,0.04,7,WeatherCatV2.00B4475,2014-10-23 13:02:00,
2014-10-23 09:07:00,47.4,46.0,29.41,North,351,6.0,10.0,95,0.00,,,0.04,11,WeatherCatV2.00B4475,2014-10-23 13:07:00,
2014-10-23 09:12:00,47.5,46.1,29.40,North,5,5.0,13.0,95,0.00,,,0.04,14,WeatherCatV2.00B4475,2014-10-23 13:12:00,
2014-10-23 09:17:00,47.5,46.1,29.40,North,355,6.0,12.0,95,0.00,,,0.04,16,WeatherCatV2.00B4475,2014-10-23 13:17:00,
2014-10-23 09:22:00,47.6,46.5,29.40,North,0,7.0,11.0,96,0.00,,,0.04,19,WeatherCatV2.00B4475,2014-10-23 13:22:00,
2014-10-23 09:27:00,47.6,46.2,29.40,North,5,11.0,12.0,95,0.00,,,0.05,14,WeatherCatV2.00B4475,2014-10-23 13:27:00,
2014-10-23 09:32:00,47.7,46.6,29.40,North,355,7.0,10.0,96,0.00,,,0.05,21,WeatherCatV2.00B4475,2014-10-23 13:32:00,
2014-10-23 09:37:00,47.8,46.4,29.40,North,355,6.0,11.0,95,0.00,,,0.05,14,WeatherCatV2.00B4475,2014-10-23 13:37:00,
2014-10-23 09:42:00,47.8,46.4,29.39,NNE,14,15.0,15.0,95,0.00,,,0.05,18,WeatherCatV2.00B4475,2014-10-23 13:42:00,
2014-10-23 09:47:00,48.0,46.6,29.40,North,355,11.0,14.0,95,0.00,,,0.05,11,WeatherCatV2.00B4475,2014-10-23 13:47:00,
2014-10-23 09:52:00,48.1,46.5,29.39,NNW,348,7.0,13.0,94,0.00,,,0.05,11,WeatherCatV2.00B4475,2014-10-23 13:52:00,
2014-10-23 09:57:00,48.2,46.5,29.39,North,0,6.0,11.0,94,0.00,,,0.05,12,WeatherCatV2.00B4475,2014-10-23 13:57:00,
2014-10-23 10:02:00,48.2,46.5,29.39,NNW,342,7.0,9.0,94,0.00,,,0.05,11,WeatherCatV2.00B4475,2014-10-23 14:02:00,
2014-10-23 10:07:00,48.3,46.7,29.38,North,11,3.0,14.0,94,0.00,,,0.05,11,WeatherCatV2.00B4475,2014-10-23 14:07:00,
2014-10-23 10:12:00,48.3,46.7,29.39,North,5,6.0,8.0,94,0.00,,,0.05,7,WeatherCatV2.00B4475,2014-10-23 14:12:00,
2014-10-23 10:17:00,48.3,46.7,29.38,NNW,341,1.0,11.0,94,0.00,,,0.05,5,WeatherCatV2.00B4475,2014-10-23 14:17:00,
2014-10-23 10:22:00,48.2,46.5,29.38,North,5,8.0,12.0,94,0.00,,,0.05,7,WeatherCatV2.00B4475,2014-10-23 14:22:00,
2014-10-23 10:27:00,48.1,46.5,29.39,NNE,20,4.0,9.0,94,0.00,,,0.06,9,WeatherCatV2.00B4475,2014-10-23 14:27:00,
2014-10-23 10:32:00,48.1,46.7,29.39,NE,36,4.0,6.0,95,0.00,,,0.06,11,WeatherCatV2.00B4475,2014-10-23 14:32:00,
2014-10-23 10:37:00,48.0,46.6,29.40,NNW,335,7.0,7.0,95,0.06,,,0.07,7,WeatherCatV2.00B4475,2014-10-23 14:37:00,
2014-10-23 10:42:00,47.9,46.5,29.39,NNW,337,0.0,5.0,95,0.06,,,0.07,0,WeatherCatV2.00B4475,2014-10-23 14:42:00,
2014-10-23 10:47:00,47.9,46.8,29.39,North,0,3.0,6.0,96,0.09,,,0.08,5,WeatherCatV2.00B4475,2014-10-23 14:47:00,
2014-10-23 10:52:00,47.8,46.7,29.39,North,355,2.0,3.0,96,0.07,,,0.08,5,WeatherCatV2.00B4475,2014-10-23 14:52:00,
2014-10-23 10:57:00,47.8,46.7,29.40,North,355,3.0,4.0,96,0.07,,,0.09,5,WeatherCatV2.00B4475,2014-10-23 14:57:00,
2014-10-23 11:02:00,47.7,46.6,29.40,North,350,1.0,7.0,96,0.07,,,0.09,11,WeatherCatV2.00B4475,2014-10-23 15:02:00,
2014-10-23 11:07:00,47.7,46.6,29.39,NNW,348,0.0,6.0,96,0.07,,,0.10,12,WeatherCatV2.00B4475,2014-10-23 15:07:00,
2014-10-23 11:12:00,47.7,46.6,29.39,North,351,2.0,9.0,96,0.06,,,0.10,11,WeatherCatV2.00B4475,2014-10-23 15:12:00,
2014-10-23 11:17:00,47.7,46.6,29.40,North,355,3.0,9.0,96,0.05,,,0.11,7,WeatherCatV2.00B4475,2014-10-23 15:17:00,
2014-10-23 11:22:00,47.7,46.9,29.39,NNW,331,2.0,8.0,97,0.08,,,0.12,9,WeatherCatV2.00B4475,2014-10-23 15:22:00,
2014-10-23 11:27:00,47.7,46.9,29.39,North,355,7.0,7.0,97,0.19,,,0.13,12,WeatherCatV2.00B4475,2014-10-23 15:27:00,
2014-10-23 11:32:00,47.7,46.9,29.39,NNW,337,4.0,9.0,97,0.14,,,0.14,14,WeatherCatV2.00B4475,2014-10-23 15:32:00,
2014-10-23 11:37:00,47.6,46.8,29.39,NNW,329,0.0,7.0,97,0.08,,,0.15,16,WeatherCatV2.00B4475,2014-10-23 15:37:00,
2014-10-23 11:42:00,47.7,46.9,29.38,NNW,335,0.0,5.0,97,0.13,,,0.16,25,WeatherCatV2.00B4475,2014-10-23 15:42:00,
2014-10-23 11:47:00,47.6,46.8,29.39,North,0,4.0,7.0,97,0.38,,,0.18,23,WeatherCatV2.00B4475,2014-10-23 15:47:00,
2014-10-23 11:52:00,47.6,46.8,29.39,North,0,2.0,7.0,97,0.28,,,0.21,19,WeatherCatV2.00B4475,2014-10-23 15:52:00,
2014-10-23 11:57:00,47.7,46.9,29.39,North,0,2.0,6.0,97,0.35,,,0.25,19,WeatherCatV2.00B4475,2014-10-23 15:57:00,
2014-10-23 12:02:00,47.7,46.9,29.38,North,349,4.0,7.0,97,0.35,,,0.29,18,WeatherCatV2.00B4475,2014-10-23 16:02:00,
2014-10-23 12:07:00,47.7,46.9,29.38,North,5,0.0,5.0,97,0.20,,,0.31,14,WeatherCatV2.00B4475,2014-10-23 16:07:00,
2014-10-23 12:12:00,47.7,46.9,29.38,North,5,4.0,9.0,97,0.09,,,0.32,19,WeatherCatV2.00B4475,2014-10-23 16:12:00,
2014-10-23 12:17:00,47.7,46.9,29.38,North,5,6.0,7.0,97,0.09,,,0.32,26,WeatherCatV2.00B4475,2014-10-23 16:17:00,
2014-10-23 12:22:00,47.7,46.9,29.38,North,10,5.0,7.0,97,0.07,,,0.33,23,WeatherCatV2.00B4475,2014-10-23 16:22:00,
2014-10-23 12:27:00,47.7,46.9,29.39,North,0,5.0,10.0,97,0.07,,,0.33,23,WeatherCatV2.00B4475,2014-10-23 16:27:00,
2014-10-23 12:32:00,47.7,46.9,29.39,North,355,3.0,11.0,97,0.05,,,0.33,19,WeatherCatV2.00B4475,2014-10-23 16:32:00,
2014-10-23 12:37:00,47.8,47.0,29.39,NNW,341,6.0,9.0,97,0.00,,,0.33,16,WeatherCatV2.00B4475,2014-10-23 16:37:00,
2014-10-23 12:42:00,47.7,46.9,29.39,North,355,7.0,7.0,97,0.00,,,0.34,12,WeatherCatV2.00B4475,2014-10-23 16:42:00,
2014-10-23 12:47:00,47.8,47.0,29.39,North,355,3.0,7.0,97,0.08,,,0.35,16,WeatherCatV2.00B4475,2014-10-23 16:47:00,
2014-10-23 12:52:00,47.8,47.0,29.38,NNW,343,0.0,4.0,97,0.08,,,0.35,12,WeatherCatV2.00B4475,2014-10-23 16:52:00,
2014-10-23 12:57:00,47.8,47.0,29.38,North,0,4.0,5.0,97,0.05,,,0.35,9,WeatherCatV2.00B4475,2014-10-23 16:57:00,
2014-10-23 13:02:00,47.8,47.0,29.37,North,0,2.0,6.0,97,0.04,,,0.35,18,WeatherCatV2.00B4475,2014-10-23 17:02:00,
2014-10-23 13:07:00,47.7,46.9,29.38,North,355,2.0,2.0,97,0.00,,,0.36,12,WeatherCatV2.00B4475,2014-10-23 17:07:00,
2014-10-23 13:12:00,47.7,46.9,29.36,North,355,3.0,4.0,97,0.00,,,0.36,19,WeatherCatV2.00B4475,2014-10-23 17:12:00,
2014-10-23 13:17:00,47.7,46.9,29.36,North,350,4.0,5.0,97,0.00,,,0.36,19,WeatherCatV2.00B4475,2014-10-23 17:17:00,
2014-10-23 13:22:00,47.7,46.9,29.36,North,355,0.0,1.0,97,0.00,,,0.36,14,WeatherCatV2.00B4475,2014-10-23 17:22:00,
2014-10-23 13:27:00,47.6,46.8,29.36,North,5,2.0,3.0,97,0.00,,,0.36,18,WeatherCatV2.00B4475,2014-10-23 17:27:00,
2014-10-23 13:32:00,47.7,46.9,29.36,NNW,344,3.0,6.0,97,0.00,,,0.37,35,WeatherCatV2.00B4475,2014-10-23 17:32:00,
2014-10-23 13:37:00,47.8,47.0,29.36,NNW,340,4.0,8.0,97,0.00,,,0.37,25,WeatherCatV2.00B4475,2014-10-23 17:37:00,
2014-10-23 13:42:00,47.9,47.1,29.35,North,351,6.0,12.0,97,0.00,,,0.37,33,WeatherCatV2.00B4475,2014-10-23 17:42:00,
2014-10-23 13:47:00,47.9,46.8,29.35,North,355,6.0,9.0,96,0.00,,,0.37,25,WeatherCatV2.00B4475,2014-10-23 17:47:00,
2014-10-23 13:52:00,48.0,46.9,29.35,North,9,5.0,10.0,96,0.00,,,0.37,33,WeatherCatV2.00B4475,2014-10-23 17:52:00,
2014-10-23 13:57:00,48.1,47.0,29.34,North,350,4.0,14.0,96,0.00,,,0.37,33,WeatherCatV2.00B4475,2014-10-23 17:57:00,
2014-10-23 14:02:00,48.2,47.1,29.34,NNW,343,5.0,11.0,96,0.00,,,0.37,25,WeatherCatV2.00B4475,2014-10-23 18:02:00,
2014-10-23 14:07:00,48.3,47.2,29.34,North,5,6.0,9.0,96,0.00,,,0.37,21,WeatherCatV2.00B4475,2014-10-23 18:07:00,
2014-10-23 14:12:00,48.3,47.2,29.34,North,0,4.0,8.0,96,0.00,,,0.37,19,WeatherCatV2.00B4475,2014-10-23 18:12:00,
2014-10-23 14:17:00,48.3,47.2,29.35,North,355,4.0,6.0,96,0.00,,,0.37,14,WeatherCatV2.00B4475,2014-10-23 18:17:00,
2014-10-23 14:22:00,48.4,47.3,29.35,North,10,3.0,3.0,96,0.00,,,0.37,11,WeatherCatV2.00B4475,2014-10-23 18:22:00,
2014-10-23 14:27:00,48.3,47.2,29.35,NNW,348,0.0,6.0,96,0.00,,,0.37,7,WeatherCatV2.00B4475,2014-10-23 18:27:00,
2014-10-23 14:32:00,48.3,47.2,29.35,North,355,5.0,5.0,96,0.00,,,0.38,7,WeatherCatV2.00B4475,2014-10-23 18:32:00,
2014-10-23 14:37:00,48.3,47.2,29.35,North,355,0.0,5.0,96,0.00,,,0.38,5,WeatherCatV2.00B4475,2014-10-23 18:37:00,
2014-10-23 14:42:00,48.3,47.2,29.35,NNW,338,2.0,6.0,96,0.33,,,0.40,7,WeatherCatV2.00B4475,2014-10-23 18:42:00,
2014-10-23 14:47:00,48.2,47.1,29.34,North,350,3.0,4.0,96,0.24,,,0.42,7,WeatherCatV2.00B4475,2014-10-23 18:47:00,
2014-10-23 14:52:00,48.2,47.4,29.34,North,0,2.0,9.0,97,0.21,,,0.44,7,WeatherCatV2.00B4475,2014-10-23 18:52:00,
2014-10-23 14:57:00,48.1,47.3,29.35,North,351,6.0,10.0,97,0.25,,,0.46,9,WeatherCatV2.00B4475,2014-10-23 18:57:00,
2014-10-23 15:02:00,48.1,47.3,29.35,NNW,342,6.0,9.0,97,0.23,,,0.48,9,WeatherCatV2.00B4475,2014-10-23 19:02:00,
2014-10-23 15:07:00,48.1,47.3,29.35,North,355,4.0,7.0,97,0.12,,,0.49,7,WeatherCatV2.00B4475,2014-10-23 19:07:00,
2014-10-23 15:12:00,48.1,47.3,29.35,North,0,0.0,6.0,97,0.13,,,0.50,7,WeatherCatV2.00B4475,2014-10-23 19:12:00,
2014-10-23 15:17:00,48.1,47.3,29.35,NNW,348,1.0,3.0,97,0.09,,,0.51,7,WeatherCatV2.00B4475,2014-10-23 19:17:00,
2014-10-23 15:22:00,48.0,47.2,29.35,North,0,5.0,7.0,97,0.09,,,0.51,12,WeatherCatV2.00B4475,2014-10-23 19:22:00,
2014-10-23 15:27:00,48.0,47.2,29.36,NNW,341,4.0,6.0,97,0.08,,,0.52,11,WeatherCatV2.00B4475,2014-10-23 19:27:00,
2014-10-23 15:32:00,48.0,47.2,29.35,NNW,346,5.0,7.0,97,0.07,,,0.52,12,WeatherCatV2.00B4475,2014-10-23 19:32:00,
2014-10-23 15:37:00,48.0,46.9,29.35,North,355,5.0,6.0,96,0.04,,,0.52,18,WeatherCatV2.00B4475,2014-10-23 19:37:00,
2014-10-23 15:42:00,48.0,46.9,29.35,North,0,5.0,7.0,96,0.00,,,0.52,16,WeatherCatV2.00B4475,2014-10-23 19:42:00,
2014-10-23 15:47:00,48.1,47.0,29.35,North,350,7.0,7.0,96,0.00,,,0.52,12,WeatherCatV2.00B4475,2014-10-23 19:47:00,
2014-10-23 15:52:00,48.1,47.0,29.34,NNW,341,4.0,7.0,96,0.00,,,0.52,14,WeatherCatV2.00B4475,2014-10-23 19:52:00,
2014-10-23 15:57:00,48.1,47.0,29.33,North,355,1.0,5.0,96,0.00,,,0.52,11,WeatherCatV2.00B4475,2014-10-23 19:57:00,
2014-10-23 16:02:00,48.0,46.9,29.30,North,350,0.0,4.0,96,0.00,,,0.52,7,WeatherCatV2.00B4475,2014-10-23 20:02:00,
2014-10-23 16:07:00,48.0,46.9,29.29,North,5,14.0,14.0,96,0.00,,,0.53,11,WeatherCatV2.00B4475,2014-10-23 20:07:00,
2014-10-23 16:12:00,48.0,46.9,29.30,North,0,5.0,7.0,96,0.00,,,0.53,12,WeatherCatV2.00B4475,2014-10-23 20:12:00,
2014-10-23 16:17:00,47.9,46.8,29.30,NNW,340,3.0,7.0,96,0.00,,,0.53,12,WeatherCatV2.00B4475,2014-10-23 20:17:00,
2014-10-23 16:22:00,48.0,46.9,29.32,NNE,32,7.0,7.0,96,0.00,,,0.53,9,WeatherCatV2.00B4475,2014-10-23 20:22:00,
2014-10-23 16:27:00,48.0,46.9,29.31,North,10,5.0,7.0,96,0.00,,,0.53,21,WeatherCatV2.00B4475,2014-10-23 20:27:00,
2014-10-23 16:32:00,48.1,47.0,29.32,NNE,12,5.0,6.0,96,0.00,,,0.54,14,WeatherCatV2.00B4475,2014-10-23 20:32:00,
2014-10-23 16:37:00,48.1,46.7,29.33,NNE,19,5.0,5.0,95,0.00,,,0.54,12,WeatherCatV2.00B4475,2014-10-23 20:37:00,
2014-10-23 16:42:00,48.2,47.1,29.33,NNW,348,2.0,6.0,96,0.00,,,0.54,16,WeatherCatV2.00B4475,2014-10-23 20:42:00,
2014-10-23 16:47:00,48.2,46.8,29.33,North,355,3.0,6.0,95,0.00,,,0.54,14,WeatherCatV2.00B4475,2014-10-23 20:47:00,
2014-10-23 16:52:00,48.3,46.9,29.34,North,5,4.0,6.0,95,0.00,,,0.54,7,WeatherCatV2.00B4475,2014-10-23 20:52:00,
2014-10-23 16:57:00,48.4,47.0,29.34,North,0,5.0,6.0,95,0.00,,,0.54,5,WeatherCatV2.00B4475,2014-10-23 20:57:00,
2014-10-23 17:02:00,48.5,47.1,29.34,North,355,3.0,6.0,95,0.00,,,0.54,0,WeatherCatV2.00B4475,2014-10-23 21:02:00,
2014-10-23 17:07:00,48.5,46.8,29.34,NNW,344,3.0,10.0,94,0.00,,,0.54,5,WeatherCatV2.00B4475,2014-10-23 21:07:00,
2014-10-23 17:12:00,48.6,47.0,29.34,North,0,4.0,10.0,94,0.00,,,0.54,9,WeatherCatV2.00B4475,2014-10-23 21:12:00,
2014-10-23 17:17:00,48.6,47.0,29.33,NNW,345,5.0,9.0,94,0.00,,,0.54,9,WeatherCatV2.00B4475,2014-10-23 21:17:00,
2014-10-23 17:22:00,48.8,47.2,29.33,North,9,10.0,10.0,94,0.00,,,0.54,5,WeatherCatV2.00B4475,2014-10-23 21:22:00,
2014-10-23 17:27:00,48.8,46.9,29.33,NNW,347,4.0,10.0,93,0.00,,,0.54,0,WeatherCatV2.00B4475,2014-10-23 21:27:00,
2014-10-23 17:32:00,48.9,47.0,29.33,North,5,5.0,14.0,93,0.00,,,0.54,0,WeatherCatV2.00B4475,2014-10-23 21:32:00,
2014-10-23 17:37:00,49.0,47.1,29.33,NNW,344,5.0,7.0,93,0.00,,,0.54,0,WeatherCatV2.00B4475,2014-10-23 21:37:00,
2014-10-23 17:42:00,49.1,46.9,29.33,North,355,10.0,15.0,92,0.00,,,0.55,0,WeatherCatV2.00B4475,2014-10-23 21:42:00,
2014-10-23 17:47:00,49.2,47.0,29.33,NNE,15,4.0,7.0,92,0.00,,,0.55,0,WeatherCatV2.00B4475,2014-10-23 21:47:00,
2014-10-23 17:52:00,49.2,46.7,29.33,NNE,18,8.0,10.0,91,0.00,,,0.55,0,WeatherCatV2.00B4475,2014-10-23 21:52:00,
2014-10-23 17:57:00,49.2,46.7,29.33,North,10,7.0,10.0,91,0.00,,,0.55,0,WeatherCatV2.00B4475,2014-10-23 21:57:00,